"Pseudo-MPEC" for P115Pt9

Created 2020 Sep 17 0:07:19 UT using Find_Orb

Click here for an explanation of pseudo-MPECs

 
 Astrometry: 
     P115Pt9  C2020 09 13-9v.SI+g!$T37yB]qSl[WQ#/K/(.HjH@@0tj;EtoX!,WwC(P5dafF51
     P115Pt9  C2020 09 13AKlPSTywsgmb)b-WW?XPU;Y_QCGqdrcAstrometryo%n#tAAa5]DF51
     P115Pt9  C2020 09 13wjV//4'_DBr)M;*EZbO(Zwredacted;+/p-=o_-Knp9O/7K(uyw%F51
     P115Pt9 ^C2020 09 14.38479600 04 13.322+04 42 26.34   ~9EL7 21.42GVNEOCP568
     P115Pt9 ^C2020 09 14.38574500 04 13.287+04 42 29.39   ~9EL7 21.51GVNEOCP568
     P115Pt9 ^C2020 09 14.38669200 04 13.252+04 42 32.41   ~9EL7 21.59GVNEOCP568
     P115Pt9 ^C2020 09 14.38763900 04 13.217+04 42 35.40   ~9EL7 21.60GVNEOCP568
     P115Pt9  C2020 09 14x1(::du7I*0OTql#VSN$#B-2YYnT2l40Wp$rZyc)]s28EX;!eDhfF51
     P115Pt9  C2020 09 143TyFIclick.X;BBLlGDLF./*[uv-k\r5:U)nUP==.29+_+R)1xk@F51
     P115Pt9 IC2020 09 16\'o2-$CNm_BIi6Xs.O[@hfYs=*q.$-iM@hereQ)xtWkZSn#ivwUW711
     P115Pt9 KC2020 09 16rCx+pHT31Xu_oQhmLE8`RacBg9swJE@HQkeyER0X'e=v,iB+\(^C711
     P115Pt9 KC2020 09 16EZd8Sacy\1*MP)r]nPdYnaOT*r_fTw/TWtl1[Ud=AnjKQ=.EforG711
     P115Pt9  C2020 09 16MX;4.IZ/_h`nBB5O$Dmuea@7l]y8*LJ:X#3l2r[M@#kcltg7g(\mF52
     P115Pt9  C2020 09 16tsmfXs72hI5!sQO9.@!:C8':ncvb]J/J(\;:Jd)KZ+xeZltHunlgF52
     P115Pt9  C2020 09 16O`[86wP`,TBCo6m3@?HKq3,ca`2\UX#^_wT\MoexplanationC'7F52
     P115Pt9  C2020 09 16fPN3cn,1s$y%g`@SwOe3)9d8P7-Mrx9HL2t3wn7PMX7mfhvQB05\F52

Station data:
(568) Mauna Kea  (N19.826116 W155.472200)  US/Hawaii.
(711) McDonald Observatory, Fort Davis  (N30.671481 W104.021500)  US/Texas.
   0.76-m f/3.0 reflector.
(F51) Pan-STARRS 1, Haleakala  (N20.707235 W156.255910)  US/Hawaii.
   Observers N. Primak, A. Schultz, S. Watters, J. Thiel, T. Goggia. Measurer
   PS1 Science Consortium. 1.8-m Ritchey-Chrétien + CCD.
(F52) Pan-STARRS 2, Haleakala  (N20.707384 W156.255910)  US/Hawaii. 1.8-m
   Ritchey-Chrétien + CCD.

Orbital elements:  P115Pt9
   Perihelion 2020 Nov 8.222330 +/- 0.138 TT =  5:20:09 (JD 2459161.722330)
Epoch 2020 Sep 16.0 TT = JDT 2459108.5   Earth MOID: 0.0062   Ve: 0.0415
M 337.54385804 +/- 0.35             Ma: 0.0322                AutoNEOCP
n   0.42193082 +/- 0.00564          Peri.  117.02200 +/- 0.043
a   1.76052370 +/- 0.0157           Node   336.84097 +/- 0.040
e   0.6862230 +/- 0.00358           Incl.    0.98239 +/- 0.007
P   2.34/853.20d           H 26.9   G  0.15   U  9.3  
q 0.55241180 +/- 0.00138    Q 2.96863560 +/- 0.033
From 16 observations 2020 Sept. 13-16; mean residual 0".54
Residuals in arcseconds: 
200913 F51  .19-  .23+    200914 568  .29+  .24-    200916 F52  .45+  .83-    
200913 F51  .13-  .34+    200914 F51  .21-  .21-    200916 F52  .36+  .74-    
200913 F51  .10-  .30+    200914 F51  .23-  .43-    200916 F52  .31+  .86-    
200914 568  .26+  .17-    200916 711  .50-  1.9+    200916 F52  .21+  .62-    
200914 568  .27+  .17-    200916 711  .52-  1.1+    
200914 568  .28+  .19-    200916 711  .34-  .20+    

Ephemerides (geocentric):
Date (UTC) HH   RA              Dec         delta   r     elong  mag " sig PA
---- -- -- --  -------------   -----------  ------ ------ -----  --- ---- ---
2020 09 17 00  00 04 27.364   +08 44 02.81  .04175 1.0459 167.3 20.9 .372  21
2020 09 17 01  00 04 27.746   +08 50 47.84  .04125 1.0454 167.2 20.8 .377  21
2020 09 17 02  00 04 28.136   +08 57 42.60  .04076 1.0449 167.2 20.8 .382  21
2020 09 17 03  00 04 28.533   +09 04 47.45  .04027 1.0444 167.1 20.8 .387  21
2020 09 17 04  00 04 28.938   +09 12 02.76  .03978 1.0439 167.0 20.8 .393  21
2020 09 17 05  00 04 29.351   +09 19 28.91  .03928 1.0434 166.9 20.7 .399  22
2020 09 17 06  00 04 29.773   +09 27 06.32  .03879 1.0429 166.9 20.7 .405  22
2020 09 17 07  00 04 30.204   +09 34 55.42  .03830 1.0424 166.8 20.7 .411  22
2020 09 17 08  00 04 30.644   +09 42 56.64  .03781 1.0419 166.7 20.7 .418  22
2020 09 17 09  00 04 31.093   +09 51 10.48  .03732 1.0414 166.6 20.6 .424  22
2020 09 17 10  00 04 31.553   +09 59 37.42  .03683 1.0409 166.5 20.6 .431  22
2020 09 17 11  00 04 32.024   +10 08 17.99  .03634 1.0404 166.4 20.6 .439  22
2020 09 17 12  00 04 32.506   +10 17 12.74  .03585 1.0399 166.3 20.6 .447  22
2020 09 17 13  00 04 33.000   +10 26 22.25  .03536 1.0394 166.2 20.5 .455  22
2020 09 17 14  00 04 33.506   +10 35 47.14  .03487 1.0389 166.1 20.5 .463  22
2020 09 17 15  00 04 34.024   +10 45 28.05  .03438 1.0384 166.0 20.5 .472  22
2020 09 17 16  00 04 34.557   +10 55 25.67  .03389 1.0379 165.8 20.5 .481  22
2020 09 17 17  00 04 35.103   +11 05 40.72  .03340 1.0374 165.7 20.4 .491  22
2020 09 17 18  00 04 35.665   +11 16 13.97  .03291 1.0368 165.6 20.4 .501  22
2020 09 17 19  00 04 36.242   +11 27 06.23  .03242 1.0363 165.4 20.4 .511  21
2020 09 17 20  00 04 36.835   +11 38 18.34  .03193 1.0358 165.3 20.3 .523  21
2020 09 17 21  00 04 37.446   +11 49 51.23  .03145 1.0353 165.1 20.3 .534  21
2020 09 17 22  00 04 38.075   +12 01 45.86  .03096 1.0348 165.0 20.3 .547  21
2020 09 17 23  00 04 38.724   +12 14 03.24  .03047 1.0343 164.8 20.3 .560  21
2020 09 18 00  00 04 39.392   +12 26 44.47  .02999 1.0338 164.7 20.2 .573  21
2020 09 18 01  00 04 40.082   +12 39 50.70  .02950 1.0333 164.5 20.2 .588  21
2020 09 18 02  00 04 40.795   +12 53 23.16  .02902 1.0328 164.3 20.2 .603  21
2020 09 18 03  00 04 41.531   +13 07 23.17  .02853 1.0323 164.1 20.1 .620  21
2020 09 18 04  00 04 42.292   +13 21 52.12  .02805 1.0318 163.9 20.1 .637  21
2020 09 18 05  00 04 43.080   +13 36 51.51  .02756 1.0313 163.7 20.1 .655  20
2020 09 18 06  00 04 43.897   +13 52 22.93  .02708 1.0308 163.5 20.0 .675  20
2020 09 18 07  00 04 44.743   +14 08 28.09  .02660 1.0303 163.3 20.0 .695  20
2020 09 18 08  00 04 45.621   +14 25 08.80  .02612 1.0298 163.0 20.0 .717  20
2020 09 18 09  00 04 46.532   +14 42 27.04  .02563 1.0293 162.8 19.9 .740  20
2020 09 18 10  00 04 47.480   +15 00 24.88  .02515 1.0288 162.5 19.9 .765  19
2020 09 18 11  00 04 48.465   +15 19 04.60  .02467 1.0283 162.2 19.9 .792  19
2020 09 18 12  00 04 49.491   +15 38 28.60  .02419 1.0278 161.9 19.8 .820  19
2020 09 18 13  00 04 50.561   +15 58 39.50  .02372 1.0273 161.7 19.8 .851  19
2020 09 18 14  00 04 51.677   +16 19 40.09  .02324 1.0268 161.3 19.8 .883  18
2020 09 18 15  00 04 52.843   +16 41 33.42  .02276 1.0263 161.0 19.7 .918  18
2020 09 18 16  00 04 54.061   +17 04 22.74  .02229 1.0257 160.7 19.7 .955  18
2020 09 18 17  00 04 55.337   +17 28 11.60  .02181 1.0252 160.3 19.7 1.00  18
2020 09 18 18  00 04 56.674   +17 53 03.81  .02134 1.0247 159.9 19.6 1.04  17
2020 09 18 19  00 04 58.078   +18 19 03.54  .02087 1.0242 159.5 19.6 1.09  17
2020 09 18 20  00 04 59.552   +18 46 15.27  .02040 1.0237 159.1 19.5 1.14  17
2020 09 18 21  00 05 01.103   +19 14 43.91  .01993 1.0232 158.7 19.5 1.19  16
2020 09 18 22  00 05 02.738   +19 44 34.76  .01946 1.0227 158.2 19.5 1.25  16
2020 09 18 23  00 05 04.463   +20 15 53.63  .01899 1.0222 157.7 19.4 1.31  16